This is the latest recevied weather packets stored in our database for station/object JR5YHL-13. If no packets are shown the sender has not sent any weather packets the latest 10 day(s).
| Time | Temp. | Humidity | Pressure | Rain* | Wind** | Luminosity | Snow |
|---|---|---|---|---|---|---|---|
| 1777533799 | 15.56° C | 99% | 1012.8 hPa | 0 mm | - | - | - |
| 1777533202 | 15.56° C | 99% | 1012.7 hPa | 0 mm | - | - | - |
| 1777532604 | 15.56° C | 99% | 1012.9 hPa | 0 mm | - | - | - |
| 1777532006 | 15.56° C | 99% | 1013.4 hPa | 0.25 mm | - | - | - |
| 1777531409 | 15.56° C | 99% | 1013.5 hPa | 0.25 mm | - | - | - |
| 1777530811 | 16.11° C | 99% | 1013.6 hPa | 0.51 mm | - | - | - |
| 1777530213 | 16.11° C | 99% | 1013.7 hPa | 0.76 mm | - | - | - |
| 1777529616 | 16.11° C | 99% | 1013.8 hPa | 0.76 mm | - | - | - |
| 1777529018 | 16.11° C | 99% | 1013.9 hPa | 1.02 mm | - | - | - |
| 1777528421 | 16.11° C | 99% | 1014 hPa | 0.76 mm | - | - | - |
| 1777527823 | 16.11° C | 99% | 1014.2 hPa | 1.02 mm | - | - | - |
| 1777527225 | 16.11° C | 99% | 1014.4 hPa | 1.02 mm | - | - | - |
| 1777526628 | 16.11° C | 99% | 1014.5 hPa | 1.27 mm | - | - | - |
| 1777526030 | 16.11° C | 99% | 1014.6 hPa | 2.03 mm | - | - | - |
| 1777525432 | 16.11° C | 99% | 1014.9 hPa | 2.54 mm | - | - | - |
| 1777524835 | 16.11° C | 99% | 1015 hPa | 2.79 mm | - | - | - |
| 1777524237 | 16.11° C | 99% | 1015.3 hPa | 3.05 mm | - | - | - |
| 1777523639 | 16.11° C | 99% | 1015.3 hPa | 3.81 mm | - | - | - |
| 1777523041 | 15.56° C | 99% | 1015.4 hPa | 4.06 mm | - | - | - |
| 1777522444 | 15.56° C | 99% | 1015.7 hPa | 4.06 mm | - | - | - |
| 1777521846 | 15.56° C | 99% | 1015.9 hPa | 3.81 mm | - | - | - |
| 1777521248 | 15.56° C | 99% | 1016 hPa | 3.81 mm | - | - | - |
| 1777520651 | 15.56° C | 99% | 1016.1 hPa | 3.56 mm | - | - | - |
| 1777520053 | 15° C | 99% | 1016.2 hPa | 3.05 mm | - | - | - |
| 1777519456 | 15° C | 99% | 1016.5 hPa | 2.79 mm | - | - | - |
* Rain latest hour (hover to see other rain measurements)
** Current wind speed in m/s (hover to see current wind gust speed)